NWS Melbourne » East Central Florida Hourly Weather Roundup

 

ASUS42 KMLB 241011
RWRMLB
HOURLY WEATHER ROUNDUP AROUND FLORIDA
NATIONAL WEATHER SERVICE OFFICE MELBOURNE FL
600 AM EDT WED AUG 24 2016
  
CITY           SKY/WX    TMP DP  RH WIND       PRES   REMARKS
MELBOURNE      CLEAR     82  79  90 NE6       30.08S                  
FORT PIERCE    CLEAR     77  76  96 CALM      30.08R                  
ORLANDO INTL   MOCLDY    80  78  94 NE7       30.10S                  
DAYTONA BEACH  MOCLDY    82  77  84 E12       30.11R                  
VERO BEACH     PTCLDY    80  77  90 N3        30.08R                  
$$
...ELSEWHERE ACROSS CENTRAL FLORIDA...
  
CITY           SKY/WX    TMP DP  RH WIND       PRES   REMARKS
PATRICK AFB    CLEAR     83  79  88 N9        30.08S                  
KSC            CLOUDY    81  75  83 E7        30.08S                  
CAPE CANAVERAL CLOUDY    80  77  89 E7        30.08R                  
ORLANDO EXEC   PTCLDY    81  79  94 NE6       30.10S                  
LEESBURG       PTCLDY    79  77  94 N3        30.12R                  
THE VILLAGES     N/A     79  79 100 MISG      30.02R                  
SANFORD        CLEAR     80  77  90 NE8       30.10S                  
DELAND         CLEAR     79  77  94 NE5       30.11R                  
WINTER HAVEN   CLEAR     79  76  90 CALM      30.12R                  
KISSIMMEE      PTCLDY    81  78  91 NE5       30.11R                  
OKEECHOBEE     CLEAR     75  75 100 CALM      30.09R FOG              
TAMPA          CLEAR     79  77  94 N3        30.10S                  
$$
...NORTHERN FLORIDA...
  
CITY           SKY/WX    TMP DP  RH WIND       PRES   REMARKS
PALM COAST     CLOUDY    81  79  94 NE5       30.12R                  
ST AUGUSTINE   PTCLDY    83  74  74 E14       30.14R                  
OCALA          PTCLDY    77  73  88 N3        30.12S                  
GAINESVILLE    CLEAR     77  75  93 N3        30.14R                  
JACKSONVILLE   PTCLDY    77  74  90 NE3       30.14R                  
TALLAHASSEE    CLOUDY    78  77  96 E6        30.15S                  
$$
...ALONG THE SOUTHEAST COAST TO THE KEYS...
  
CITY           SKY/WX    TMP DP  RH WIND       PRES   REMARKS
STUART         CLEAR     84  79  84 NE5       30.08R                  
WEST PALM BCH  PTCLDY    85  76  74 NE7       30.07R                  
MIAMI          CLOUDY    83  76  79 N6        30.04S                  
KEY WEST       CLOUDY    82  78  88 NE6       30.04S                  
$$
...MARINE REPORTS...
  
STATION/POSITION TIME  TEMP    WIND        PRES    WAVE   SWELL
                       AIR SEA DIR/SP/G            HT/PER HT/PER
                 (UTC) (F)     (DEG/KT/KT) (MB)    (FT/S) (FT/S)
ST AUGUSTINE FP  1000   83 83   80/ 15/ 17 1021.2R
20NM E CAPE CANA 0920   82 82   10/ 14/ 16 1018.8
TRIDENT PIER     0942   81 86   30/  5/  7 1019.1R
SEBASTIAN INLET  1000   83 84              1019.0
4NM E PORT CANAV 0940      84                N/A     1/ 8
6NM NE FPR INLET 0930      83                N/A     2/ 5
SETTLEMENT PT GB 1000   84     140/  5/  6 1018.2R
$$
  
 

 

Link to: East Central Florida Hourly Weather Roundup


USA.gov is the U.S. government's official web portal to all federal, state and local government web resources and services.